| time (UTC) | temp F | wind direction | speed MPH | gust MPH | rain 1hr in | rain 24hr in | rain mn in | humidity % | barometer mb |
| 20260508114529 | 36 | 240 | 0.0 | 3.0 | 0.00 | 0.00 | 0.00 | 85 | 1009.8 |
| 20260508113027 | 35 | 74 | 0.0 | 0.0 | 0.00 | 0.00 | 0.00 | 89 | 1009.6 |
| 20260508111525 | 34 | 74 | 0.0 | 0.0 | 0.00 | 0.00 | 0.00 | 89 | 1009.5 |
| 20260508110023 | 33 | 323 | 0.0 | 0.0 | 0.00 | 0.00 | 0.00 | 89 | 1009.2 |
| 20260508104521 | 33 | 323 | 0.0 | 0.0 | 0.00 | 0.00 | 0.00 | 89 | 1009.1 |
| 20260508103029 | 32 | 323 | 0.0 | 0.0 | 0.00 | 0.00 | 0.00 | 90 | 1009.0 |
| 20260508101528 | 32 | 323 | 0.0 | 0.0 | 0.00 | 0.00 | 0.00 | 90 | 1008.8 |
| 20260508100015 | 32 | 323 | 0.0 | 0.0 | 0.00 | 0.00 | 0.00 | 90 | 1008.5 |
| 20260508094512 | 31 | 323 | 0.0 | 0.0 | 0.00 | 0.00 | 0.00 | 89 | 1008.5 |
| 20260508093012 | 31 | 323 | 0.0 | 0.0 | 0.00 | 0.00 | 0.00 | 88 | 1008.4 |
| 20260508091512 | 31 | 323 | 0.0 | 6.0 | 0.00 | 0.00 | 0.00 | 88 | 1008.3 |
| 20260508090009 | 31 | 321 | 0.0 | 2.0 | 0.00 | 0.00 | 0.00 | 87 | 1008.2 |
| 20260508084508 | 31 | 323 | 0.0 | 4.0 | 0.00 | 0.00 | 0.00 | 86 | 1008.2 |
| 20260508083007 | 31 | 13 | 0.0 | 3.0 | 0.00 | 0.00 | 0.00 | 86 | 1008.1 |
| 20260508081505 | 31 | 13 | 1.0 | 2.0 | 0.00 | 0.00 | 0.00 | 85 | 1008.2 |
| 20260508080007 | 31 | 13 | 0.0 | 0.0 | 0.00 | 0.00 | 0.00 | 85 | 1008.1 |
| 20260508074505 | 31 | 12 | 0.0 | 0.0 | 0.00 | 0.00 | 0.00 | 84 | 1007.8 |
| 20260508073007 | 31 | 12 | 0.0 | 0.0 | 0.00 | 0.00 | 0.00 | 85 | 1007.7 |
| 20260508071503 | 31 | 12 | 0.0 | 0.0 | 0.00 | 0.00 | 0.00 | 85 | 1007.7 |
| 20260508070001 | 31 | 12 | 0.0 | 0.0 | 0.00 | 0.00 | 0.00 | 83 | 1007.8 |
| 20260508064615 | 31 | 12 | 0.0 | 0.0 | 0.00 | 0.00 | 0.00 | 83 | 1007.8 |
| 20260508063108 | 32 | 12 | 0.0 | 0.0 | 0.00 | 0.00 | 0.00 | 82 | 1007.9 |
| 20260508061558 | 32 | 12 | 0.0 | 0.0 | 0.00 | 0.00 | 0.00 | 81 | 1008.0 |
| 20260508060054 | 33 | 12 | 0.0 | 0.0 | 0.00 | 0.00 | 0.00 | 80 | 1008.0 |
| 20260508054601 | 33 | 12 | 0.0 | 0.0 | 0.00 | 0.00 | 0.00 | 79 | 1008.1 |
| 20260508053051 | 33 | 12 | 0.0 | 0.0 | 0.00 | 0.00 | 0.00 | 78 | 1008.0 |
| 20260508051552 | 34 | 12 | 0.0 | 0.0 | 0.00 | 0.00 | 0.00 | 78 | 1007.9 |
| 20260508050046 | 35 | 12 | 0.0 | 0.0 | 0.00 | 0.00 | 0.00 | 77 | 1007.8 |
| 20260508044544 | 35 | 12 | 0.0 | 0.0 | 0.00 | 0.00 | 0.00 | 76 | 1008.3 |
| 20260508043046 | 35 | 12 | 0.0 | 0.0 | 0.00 | 0.00 | 0.00 | 75 | 1008.3 |
| 20260508041540 | 36 | 12 | 0.0 | 0.0 | 0.00 | 0.00 | 0.00 | 74 | 1008.4 |
| 20260508040041 | 36 | 12 | 0.0 | 0.0 | 0.00 | 0.00 | 0.00 | 74 | 1008.4 |
| 20260508034536 | 37 | 12 | 0.0 | 0.0 | 0.00 | 0.00 | 0.00 | 73 | 1008.4 |
| 20260508033034 | 37 | 12 | 0.0 | 0.0 | 0.00 | 0.00 | 0.00 | 70 | 1008.5 |
| 20260508031533 | 38 | 13 | 0.0 | 0.0 | 0.00 | 0.00 | 0.00 | 70 | 1008.3 |
| 20260508030031 | 38 | 12 | 0.0 | 0.0 | 0.00 | 0.00 | 0.00 | 67 | 1008.4 |
| 20260508024541 | 40 | 12 | 0.0 | 0.0 | 0.00 | 0.00 | 0.00 | 67 | 1008.4 |
| 20260508023030 | 41 | 12 | 0.0 | 0.0 | 0.00 | 0.00 | 0.00 | 64 | 1008.3 |
| 20260508021528 | 41 | 12 | 0.0 | 0.0 | 0.00 | 0.00 | 0.00 | 62 | 1008.2 |
| 20260508020027 | 42 | 12 | 0.0 | 0.0 | 0.00 | 0.00 | 0.00 | 60 | 1008.2 |
| 20260508014543 | 43 | 17 | 0.0 | 6.0 | 0.00 | 0.01 | 0.00 | 57 | 1008.0 |
| 20260508013028 | 43 | 5 | 0.0 | 8.0 | 0.00 | 0.01 | 0.00 | 56 | 1007.7 |
| 20260508011528 | 44 | 343 | 0.0 | 5.0 | 0.00 | 0.01 | 0.00 | 55 | 1007.6 |
| 20260508010030 | 44 | 313 | 4.0 | 8.0 | 0.00 | 0.01 | 0.00 | 53 | 1007.5 |
| 20260508004528 | 45 | 333 | 0.0 | 7.0 | 0.00 | 0.02 | 0.00 | 54 | 1007.3 |
| 20260508003049 | 46 | 350 | 5.0 | 9.0 | 0.00 | 0.02 | 0.00 | 52 | 1007.1 |
| 20260508001523 | 46 | 313 | 0.0 | 4.0 | 0.00 | 0.02 | 0.00 | 50 | 1006.9 |
| 20260508000024 | 47 | 298 | 0.0 | 6.0 | 0.00 | 0.02 | 0.00 | 50 | 1006.7 |
| 20260507234523 | 48 | 263 | 0.0 | 9.0 | 0.00 | 0.02 | 0.00 | 48 | 1006.7 |
| 20260507233031 | 48 | 243 | 5.0 | 13.0 | 0.00 | 0.02 | 0.00 | 46 | 1006.5 |
| 20260507231522 | 49 | 281 | 5.0 | 13.0 | 0.00 | 0.02 | 0.00 | 46 | 1006.4 |
| 20260507230021 | 50 | 292 | 3.0 | 11.0 | 0.00 | 0.02 | 0.00 | 46 | 1006.4 |
| 20260507224522 | 50 | 285 | 8.0 | 15.0 | 0.00 | 0.02 | 0.00 | 46 | 1006.5 |
| 20260507223021 | 50 | 242 | 6.0 | 14.0 | 0.00 | 0.02 | 0.00 | 46 | 1006.4 |
| 20260507221520 | 51 | 279 | 5.0 | 15.0 | 0.00 | 0.02 | 0.00 | 45 | 1006.4 |
| 20260507220020 | 51 | 290 | 7.0 | 18.0 | 0.00 | 0.02 | 0.00 | 44 | 1006.3 |
| 20260507214520 | 51 | 208 | 1.0 | 13.0 | 0.00 | 0.02 | 0.00 | 48 | 1006.3 |
| 20260507213020 | 51 | 161 | 4.0 | 13.0 | 0.00 | 0.02 | 0.00 | 46 | 1006.2 |
| 20260507211519 | 50 | 319 | 7.0 | 16.0 | 0.00 | 0.02 | 0.00 | 47 | 1006.3 |
| 20260507210018 | 51 | 223 | 6.0 | 16.0 | 0.00 | 0.02 | 0.00 | 44 | 1006.2 |
| 20260507204517 | 52 | 316 | 7.0 | 21.0 | 0.00 | 0.08 | 0.00 | 45 | 1006.1 |
| 20260507203018 | 52 | 331 | 10.0 | 15.0 | 0.00 | 0.08 | 0.00 | 46 | 1006.1 |
| 20260507201519 | 50 | 180 | 4.0 | 14.0 | 0.00 | 0.08 | 0.00 | 50 | 1006.2 |
| 20260507200015 | 50 | 296 | 0.0 | 14.0 | 0.00 | 0.08 | 0.00 | 49 | 1006.2 |
| 20260507194516 | 50 | 309 | 7.0 | 20.0 | 0.00 | 0.11 | 0.00 | 48 | 1006.4 |
| 20260507193014 | 50 | 311 | 9.0 | 15.0 | 0.00 | 0.11 | 0.00 | 47 | 1006.4 |
| 20260507191514 | 50 | 283 | 3.0 | 16.0 | 0.00 | 0.11 | 0.00 | 48 | 1006.5 |
| 20260507190014 | 50 | 314 | 6.0 | 12.0 | 0.00 | 0.11 | 0.00 | 48 | 1006.7 |
| 20260507184516 | 50 | 350 | 5.0 | 13.0 | 0.00 | 0.20 | 0.00 | 50 | 1006.7 |
| 20260507183013 | 50 | 254 | 7.0 | 17.0 | 0.00 | 0.20 | 0.00 | 48 | 1006.9 |
| 20260507181512 | 50 | 279 | 3.0 | 16.0 | 0.00 | 0.20 | 0.00 | 48 | 1007.0 |
| 20260507180014 | 51 | 347 | 8.0 | 16.0 | 0.00 | 0.20 | 0.00 | 45 | 1007.0 |
| 20260507174511 | 52 | 323 | 9.0 | 20.0 | 0.00 | 0.33 | 0.00 | 44 | 1007.0 |
| 20260507173011 | 53 | 214 | 6.0 | 17.0 | 0.00 | 0.33 | 0.00 | 49 | 1007.1 |
| 20260507171507 | 52 | 307 | 6.0 | 13.0 | 0.00 | 0.33 | 0.00 | 52 | 1007.2 |
| 20260507170006 | 51 | 300 | 6.0 | 18.0 | 0.00 | 0.33 | 0.00 | 50 | 1007.3 |
| 20260507164504 | 51 | 315 | 9.0 | 15.0 | 0.00 | 0.48 | 0.00 | 55 | 1007.5 |
| 20260507163002 | 50 | 313 | 5.0 | 17.0 | 0.00 | 0.48 | 0.00 | 54 | 1007.8 |
| 20260507161603 | 50 | 321 | 9.0 | 17.0 | 0.00 | 0.48 | 0.00 | 53 | 1007.9 |
| 20260507160107 | 50 | 355 | 9.0 | 19.0 | 0.00 | 0.48 | 0.00 | 51 | 1008.0 |
| 20260507154554 | 50 | 281 | 6.0 | 18.0 | 0.00 | 0.54 | 0.00 | 56 | 1008.1 |
| 20260507153058 | 49 | 263 | 8.0 | 20.0 | 0.00 | 0.54 | 0.00 | 52 | 1008.3 |
| 20260507151546 | 48 | 273 | 7.0 | 22.0 | 0.00 | 0.54 | 0.00 | 55 | 1008.3 |
| 20260507150041 | 47 | 301 | 5.0 | 19.0 | 0.00 | 0.54 | 0.00 | 56 | 1008.2 |
| 20260507144538 | 47 | 263 | 9.0 | 18.0 | 0.00 | 0.56 | 0.00 | 53 | 1008.4 |
| 20260507143035 | 46 | 322 | 7.0 | 21.0 | 0.00 | 0.56 | 0.00 | 56 | 1008.3 |
| 20260507141531 | 46 | 242 | 9.0 | 22.0 | 0.00 | 0.56 | 0.00 | 54 | 1008.4 |
| 20260507140029 | 46 | 273 | 6.0 | 17.0 | 0.00 | 0.56 | 0.00 | 61 | 1008.1 |
| 20260507134526 | 46 | 342 | 8.0 | 14.0 | 0.00 | 0.56 | 0.00 | 65 | 1007.9 |
| 20260507133022 | 45 | 279 | 8.0 | 17.0 | 0.00 | 0.56 | 0.00 | 68 | 1007.9 |
| 20260507131515 | 45 | 317 | 7.0 | 13.0 | 0.00 | 0.56 | 0.00 | 70 | 1007.7 |
| 20260507130012 | 44 | 292 | 7.0 | 15.0 | 0.00 | 0.56 | 0.00 | 71 | 1007.7 |
| 20260507124513 | 44 | 319 | 6.0 | 16.0 | 0.00 | 0.56 | 0.00 | 75 | 1007.7 |
| 20260507123003 | 43 | 308 | 6.0 | 14.0 | 0.00 | 0.56 | 0.00 | 81 | 1007.7 |
| 20260507121559 | 41 | 281 | 5.0 | 11.0 | 0.00 | 0.56 | 0.00 | 90 | 1007.5 |
| 20260507120055 | 39 | 271 | 4.0 | 11.0 | 0.00 | 0.56 | 0.00 | 93 | 1007.4 |